Regional Weather Roundup
Issued by NWS Charleston, SC

Current Version | Previous Version | Graphics & Text | Print | Product List | Glossary On
Versions: 1 2 3 4 5 6 7 8 9 10 11 12 13 14 15 16 17 18 19 20 21 22 23 24 25 26 27 28 29 30 31 32 33 34 35 36 37 38 39 40 41 42 43 44 45 46 47 48 49 50
000 ASUS42 KCHS 182012 RWRCHS REGIONAL WEATHER ROUNDUP NATIONAL WEATHER SERVICE CHARLESTON SC 300 PM EST SAT NOV 18 2017 NOTE: "FAIR" INDICATES FEW OR NO CLOUDS BELOW 12,000 FEET WITH NO SIGNIFICANT WEATHER AND/OR OBSTRUCTIONS TO VISIBILITY. NOT ALL STATIONS ARE QUALITY CONTROLLED. USE DATA WITH CAUTION... ESPECIALLY DEWPOINT OBSERVATIONS. SCZ027-030-031-034>040-042>050-182100- ...SOUTHEAST SOUTH CAROLINA... CITY SKY/WX TMP DP RH WIND PRES REMARKS N CHARLESTON MOSUNNY 75 55 49 SW16G25 29.88F WATERFRONT PRK NOT AVBL JOHNS ISLAND FAIR 73 59 60 S14 29.89F PINOPOLIS N/A 73 57 56 SW8G15 29.80F MONCKS CORNER FAIR 73 50 43 SW15G21 29.87F SUMMERVILLE FAIR 73 54 49 S7G20 29.87F BEAUFORT MCAS SUNNY 75 58 55 S9G22 29.88F BEAUFORT ARPT FAIR 73 57 56 S10G18 29.88F HAZE HILTON HEAD IS MOSUNNY 73 61 64 S10 29.90F WALTERBORO PTCLDY 72 55 56 S14G20 29.87F ALLENDALE FAIR 75 52 43 VRB7 29.85F ...SOUTHERN MIDLANDS AND PEE DEE... CITY SKY/WX TMP DP RH WIND PRES REMARKS GEORGETOWN FAIR 73 55 53 S13G18 29.88F KINGSTREE FAIR 72 54 53 S6 29.85F ORANGEBURG MOSUNNY 71 52 50 SW15G22 29.86F BARNWELL N/A 75 54 46 S13 29.85F AIKEN FAIR 70 50 49 S10G21 29.88F MANNING FAIR 73 59 60 MISG 29.86F COLUMBIA CLOUDY 74 51 44 SW15 29.83F SUMTER MOSUNNY 72 52 49 S15G23 29.82F FLORENCE MOSUNNY 72 53 51 SW21G28 29.84F MYRTLE BEACH MOSUNNY 70 60 70 S10 29.88F N MYRTLE BEACH MOSUNNY 68 59 73 S8 29.87F $$ GAZ063-065-086>088-099>101-113>116-118-119-134>141-150-182100- ...SOUTHEAST GEORGIA... CITY SKY/WX TMP DP RH WIND PRES REMARKS SAVANNAH ARPT MOSUNNY 77 53 43 SW10 29.88F HUNTER AAF MOSUNNY 76 55 47 S13 29.86F FORT STEWART MOSUNNY 76 53 43 S9G17 29.87F STATESBORO SUNNY 76 46 34 S9 29.87F SYLVANIA CLEAR 75 55 48 SW9 29.88F CLAXTON FAIR 76 54 46 S9 29.89F ...CSRA...CENTRAL AND FAR SOUTHEAST GEORGIA... CITY SKY/WX TMP DP RH WIND PRES REMARKS THOMSON CLOUDY 71 51 49 W7 29.90F AUGUSTA-BUSH SUNNY 73 52 47 S13 29.84F AUGUSTA-DANIEL SUNNY 72 51 47 S13 29.86F SWAINSBORO FAIR 73 52 46 NW8 29.88F VIDALIA SUNNY 77 54 44 SW13 29.88F EASTMAN FAIR 76 34 21 S8 29.90F HAZLEHURST FAIR 76 36 23 SW12 29.89F ALMA SUNNY 76 52 43 SW12G18 29.89F WAYCROSS MOSUNNY 76 48 37 SW9 29.90F JESUP FAIR 77 52 41 SW8 29.90F BAXLEY FAIR 73 52 46 S10 29.89F BRUNSWICK MOSUNNY 77 52 41 SW12G17 29.91F SAINT SIMONS SUNNY 72 60 66 S7 29.91F $$ SCZ027-028-034-036>038-045-046-048>050-GAZ119-141-182100- ...LAKE AND SUPPLEMENTAL COASTAL OBSERVATIONS... STATION/POSITION TIME TEMP WIND PRES WAVE SWELL AIR SEA DIR/SP/G HT/PER HT/PER/DIR (UTC) (F) (DEG/KT/KT) (MB) (FT/S) (FT/S/D) WINYAH BAY NOT AVBL LAKE MURRAY 1920 68 240/ 13/ 17 1010.5 ACE BASIN NERRS 1845 74 200/ 2 1013.0 FORT PULASKI NOT AVBL SAPELO ISLAND 1900 77 210/ 11 1013.0 $$ ANZ835-935-AMZ111-154-330-350-352-354-370-450-454-472-182100- ...C-MAN AND BUOY OBSERVATIONS... STATION/POSITION TIME TEMP WIND PRES WAVE SWELL AIR SEA DIR/SP/G HT/PER HT/PER/DIR (UTC) (F) (DEG/KT/KT) (MB) (FT/S) (FT/S/D) BUOY 41004 1950 73 76 240/ 16/ 17 1012.1F 4/ 4 2/ 70/11 BUOY 41008 1950 69 69 190/ 8/ 8 1012.9F 2/11 2/ 60/11 FOLLY BEACH CMAN 1900 68 200/ 5/ 6 1013.9F CAPERS NEARSHORE 1908 67 64 210/ 8/ 10 1012.8F FRIPP NEARSHORE 1908 67 62 200/ 6/ 10 1013.6R STATION/POSITION TIME TEMP WIND PRES WAVE SWELL AIR SEA DIR/SP/G HT/PER HT/PER/DIR (UTC) (F) (DEG/KT/KT) (MB) (FT/S) (FT/S/D) 5E ST. MARYS GA 2000 67 N/A 2/ 7 2/ 90/11 FRYING PAN BUOY 1950 72 71 190/ 17/ 23 1012.2F 3/ 9 2/ 80/ 9 BUOY 41025 1950 69 210/ 17/ 21 1012.8F 3/ 9 2/ 70/ 9 CAPE LOOKOUT NC 1900 66 200/ 11/ 13 1013.6F BUOY 41002 1950 71 77 170/ 10/ 16 1015.6F 6/ 9 5/350/ 9 BUOY 41010 NOT AVBL ST AUGUSTINE FL 2000 70 69 140/ 8/ 9 1013.7F $$

USA.gov is the U.S. government's official web portal to all federal, state and local government web resources and services.